Regional Weather Roundup
Issued by NWS Sioux Falls, SD

Home | Current Version | Previous Version | Graphics & Text | Print | Product List | Glossary On
Versions: 1 2 3 4 5 6 7 8 9 10 11 12 13 14 15 16 17 18 19 20 21 22 23 24 25 26 27 28 29 30 31 32 33 34 35 36 37 38 39 40 41 42 43 44 45 46 47 48 49 50
000
ASUS43 KFSD 282110
RWRFSD

WEATHER ROUNDUP FOR SE SOUTH DAKOTA/SW MINNESOTA/NW IOWA
NATIONAL WEATHER SERVICE SIOUX FALLS SD
400 PM CDT WED JUN 28 2017

NOTE: "FAIR" INDICATES FEW OR NO CLOUDS BELOW 12,000 FEET WITH NO
SIGNIFICANT WEATHER AND OR OBSTRUCTIONS TO VISIBILITY.


SDZ038>040-050-052>070-282200-
SOUTHEAST SOUTH DAKOTA

CITY           SKY/WX    TMP DP  RH WIND       PRES   REMARKS
BROOKINGS      MOSUNNY   81  64  56 NW15G22   29.61S
CHAMBERLAIN    SUNNY     86  57  37 NW15G22   29.68R
HURON          SUNNY     86  56  35 NW14G28   29.62S
MADISON        FAIR      81  63  54 NW17G23   29.63S
MITCHELL       MOSUNNY   88  57  34 NW18G24   29.63R
SIOUX FALLS    MOSUNNY   84  65  52 W14G22    29.62R
WINNER         FAIR      89  52  28 NW13G23   29.70R
YANKTON        MOSUNNY   86  62  44 W13G24    29.65R
$$

MNZ071-072-080-081-089-090-097-098-282200-
SOUTHWEST MINNESOTA

CITY           SKY/WX    TMP DP  RH WIND       PRES   REMARKS
FAIRMONT       PTSUNNY   83  67  58 W15G22    29.60S
JACKSON        MOSUNNY   81  63  54 W16G23    29.62S
LUVERNE        SUNNY     82  59  44 W17       29.63S
MARSHALL       SUNNY     84  63  49 W21       29.57R
MONTEVIDEO     CLOUDY    81  63  54 N15G26    29.56R
PIPESTONE      SUNNY     84  63  48 NW14G22   29.62S
REDWOOD FALLS  SUNNY     84  62  47 W20       29.54S
TRACY          SUNNY     82  68  62 W10G21    29.59S
WINDOM         SUNNY     82  66  57 W12G22    29.60S
WORTHINGTON    MOSUNNY   81  66  60 W15       29.63R
$$

IAZ001>003-012>014-020>022-031-032-NEZ013-014-SDZ071-282200-
NORTHWEST IOWA

CITY           SKY/WX    TMP DP  RH WIND       PRES   REMARKS
CHEROKEE       MOSUNNY   85  64  48 W12       29.62S
DENISON        MOSUNNY   86  68  54 W17G25    29.66S
ESTHERVILLE    MOSUNNY   82  68  62 W14       29.61S
LE MARS        SUNNY     86  63  45 W13G18    29.64S
ORANGE CITY    SUNNY     84  64  51 NW14      29.64S
SHELDON        SUNNY     84  64  51 W12G18    29.62S
SIOUX CITY     SUNNY     88  64  44 W12G20    29.63R
SPENCER        MOSUNNY   85  65  51 W13       29.62S
STORM LAKE     SUNNY     84  66  54 W16G22    29.65R
$$

ABBREVIATIONS USED IN REMARKS
   TC - TEMPERATURE IN CELSIUS
  WCI - WIND CHILL INDEX
   HX - HEAT INDEX
  VSB - VISIBILITY





USA.gov is the U.S. government's official web portal to all federal, state and local government web resources and services.